Volver al catálogo

KUIPER-00173

ActivoComunicacionesLEO
NORAD 65786·PAYLOAD·🇺🇸 United States

Lanzado Sep 25, 2025 desde Cape Canaveral Space Force Station

Loading…

Próximos Pases (próximas 24 horas)

TLE

ActualizadoSource: CelesTrak SupGP

Época: Sep 14, 2026, 18:50 UTC

1 65786C 25217AA  26257.78518519  .00000625  00000+0  81795-4 0  2578
2 65786  51.8992 276.9361 0000485  44.6527 355.8964 14.79916439    11

Sigue KUIPER-00173 en tiempo real con AllMySat

Download on the App Store